Shawano, WI

3:28 AM CDT on May 24, 2018 (GMT -0500)
Shawano

Weather History for KEZS - September, 2013

Change the Weather History Date:

Thursday, September 5, 2013

  Actual Average (WUND) Record (WUND)
Temperature  
Mean Temperature 61 °F -  
Max Temperature 72 °F - - (-1)
Min Temperature 50 °F - - (-1)
Degree Days  
Heating Degree Days 4    
Growing Degree Days 11 (Base 50)    
Moisture  
Dew Point 49 °F    
Average Humidity 65    
Maximum Humidity 84    
Minimum Humidity 42    
Precipitation  
Precipitation 0.00 in - - ()
Sea Level Pressure  
Sea Level Pressure 30.27 in    
Wind  
Wind Speed 6 mph (East)    
Max Wind Speed 9 mph    
Max Gust Speed -    
Visibility 10 miles    
Events      
Averages and records for this station are not official NWS values.
T = Trace of Precipitation, MM = Missing Value Source: NWS Daily Summary

Daily Weather History Graph

Daily Weather History Graph

Search for Another Location

Airport or City:

Astronomy

Sep. 05, 2013 Rise Set
Actual Time 6:21 AM CDT 7:23 PM CDT
Civil Twilight 5:51 AM CDT 7:53 PM CDT
Nautical Twilight 5:15 AM CDT 8:28 PM CDT
Astronomical Twilight 4:38 AM CDT 9:06 PM CDT
Moon 6:35 AM CDT (9/5) 7:10 PM CDT (9/5)
Length of Visible Light 14h 01m
Length of Day
13h 01m
New Moon, 0% of the Moon is Illuminated
Sep 5
New Moon
Sep 12
First Quarter
Sep 19
Full
Sep 26
Last Quarter
Oct 4
New

Hourly Weather History & Observations

Time (CDT) Temp. Dew Point Humidity Pressure Visibility Wind Dir Wind Speed Gust Speed Precip Events Conditions
12:15 AM 59.7 °F 51.3 °F 74% 30.20 in 10.0 mi NE 8.1 mph - N/A   Scattered Clouds
12:35 AM 58.3 °F 49.6 °F 73% 30.21 in 10.0 mi ENE 9.2 mph - N/A   Clear
12:55 AM 57.6 °F 48.6 °F 72% 30.21 in 10.0 mi ENE 9.2 mph - N/A   Clear
1:15 AM 57.0 °F 47.3 °F 70% 30.21 in 10.0 mi NE 6.9 mph - N/A   Clear
1:35 AM 56.7 °F 48.2 °F 73% 30.21 in 10.0 mi NE 8.1 mph - N/A   Clear
1:55 AM 56.1 °F 47.5 °F 73% 30.22 in 10.0 mi NE 5.8 mph - N/A   Clear
2:15 AM 55.8 °F 48.6 °F 77% 30.22 in 10.0 mi ENE 3.5 mph - N/A   Clear
2:35 AM 55.4 °F 47.7 °F 75% 30.23 in 10.0 mi NE 4.6 mph - N/A   Clear
2:55 AM 54.9 °F 47.3 °F 76% 30.24 in 10.0 mi NE 6.9 mph - N/A   Clear
3:15 AM 54.0 °F 47.3 °F 78% 30.24 in 10.0 mi ENE 4.6 mph - N/A   Clear
3:35 AM 54.5 °F 45.9 °F 73% 30.25 in 10.0 mi NE 6.9 mph - N/A   Clear
3:55 AM 54.0 °F 46.0 °F 75% 30.25 in 10.0 mi NE 5.8 mph - N/A   Clear
4:15 AM 53.6 °F 46.0 °F 76% 30.26 in 10.0 mi NE 5.8 mph - N/A   Clear
4:35 AM 53.2 °F 46.8 °F 79% 30.26 in 10.0 mi NE 3.5 mph - N/A   Clear
4:55 AM 52.0 °F 46.4 °F 81% 30.27 in 10.0 mi ENE 4.6 mph - N/A   Clear
5:15 AM 50.5 °F 45.1 °F 82% 30.27 in 10.0 mi Calm Calm - N/A   Clear
5:35 AM 51.6 °F 46.9 °F 84% 30.28 in 10.0 mi ENE 4.6 mph - N/A   Clear
5:55 AM 52.2 °F 47.5 °F 84% 30.28 in 10.0 mi NE 5.8 mph - N/A   Clear
6:15 AM 52.2 °F 47.5 °F 84% 30.29 in 10.0 mi NE 5.8 mph - N/A   Clear
6:35 AM 52.2 °F 47.3 °F 83% 30.30 in 10.0 mi NNE 5.8 mph - N/A   Clear
6:55 AM 52.3 °F 46.6 °F 81% 30.31 in 10.0 mi ENE 5.8 mph - N/A   Clear
7:15 AM 53.6 °F 46.4 °F 77% 30.31 in 10.0 mi ENE 8.1 mph - N/A   Clear
7:35 AM 54.7 °F 46.8 °F 75% 30.32 in 10.0 mi ENE 5.8 mph - N/A   Clear
7:55 AM 55.4 °F 47.3 °F 74% 30.32 in 10.0 mi ENE 6.9 mph - N/A   Clear
8:15 AM 56.7 °F 48.7 °F 75% 30.32 in 10.0 mi ESE 3.5 mph - N/A   Clear
8:35 AM 57.7 °F 48.4 °F 71% 30.32 in 10.0 mi East 4.6 mph - N/A   Clear
8:55 AM 59.2 °F 48.7 °F 68% 30.32 in 10.0 mi ENE 3.5 mph - N/A   Clear
9:15 AM 60.6 °F 48.7 °F 65% 30.32 in 10.0 mi East 4.6 mph - N/A   Clear
9:35 AM 62.2 °F 49.1 °F 62% 30.33 in 10.0 mi ENE 6.9 mph - N/A   Clear
9:55 AM 63.1 °F 47.5 °F 57% 30.32 in 10.0 mi East 6.9 mph - N/A   Clear
10:15 AM 64.8 °F 48.9 °F 56% 30.33 in 10.0 mi ESE 6.9 mph - N/A   Clear
10:35 AM 64.9 °F 47.8 °F 54% 30.33 in 10.0 mi East 4.6 mph - N/A   Clear
10:55 AM 65.3 °F 48.4 °F 54% 30.32 in 10.0 mi ENE 5.8 mph - N/A   Clear
11:15 AM 66.2 °F 47.7 °F 51% 30.32 in 10.0 mi East 5.8 mph - N/A   Clear
11:35 AM 66.7 °F 47.7 °F 50% 30.32 in 10.0 mi Calm Calm - N/A   Clear
11:55 AM 68.0 °F 48.7 °F 50% 30.31 in 10.0 mi SE 3.5 mph - N/A   Clear
12:15 PM 68.2 °F 48.0 °F 48% 30.31 in 10.0 mi SE 3.5 mph - N/A   Clear
12:35 PM 68.4 °F 48.7 °F 49% 30.31 in 10.0 mi NE 6.9 mph - N/A   Clear
12:55 PM 68.4 °F 48.4 °F 49% 30.30 in 10.0 mi NNE 4.6 mph - N/A   Clear
1:15 PM 68.9 °F 46.8 °F 45% 30.30 in 10.0 mi South 3.5 mph - N/A   Clear
1:35 PM 70.2 °F 48.2 °F 46% 30.29 in 10.0 mi Calm Calm - N/A   Clear
1:55 PM 69.6 °F 47.1 °F 45% 30.29 in 10.0 mi South 3.5 mph - N/A   Clear
2:15 PM 70.2 °F 46.0 °F 42% 30.29 in 10.0 mi Calm Calm - N/A   Clear
2:35 PM 71.1 °F 47.8 °F 44% 30.28 in 10.0 mi NE 5.8 mph - N/A   Clear
2:55 PM 70.5 °F 48.0 °F 45% 30.28 in 10.0 mi NE 6.9 mph - N/A   Clear
3:15 PM 70.9 °F 49.3 °F 46% 30.27 in 10.0 mi North 3.5 mph - N/A   Clear
3:35 PM 71.1 °F 48.9 °F 45% 30.26 in 10.0 mi ENE 5.8 mph - N/A   Clear
3:55 PM 71.8 °F 48.4 °F 43% 30.26 in 10.0 mi East 4.6 mph - N/A   Clear
4:15 PM 71.8 °F 49.1 °F 45% 30.26 in 10.0 mi Calm Calm - N/A   Clear
4:35 PM 71.6 °F 50.5 °F 47% 30.26 in 10.0 mi ENE 5.8 mph - N/A   Clear
4:55 PM 71.2 °F 49.5 °F 46% 30.25 in 10.0 mi NE 5.8 mph - N/A   Clear
5:15 PM 72.1 °F 50.0 °F 46% 30.25 in 10.0 mi ENE 4.6 mph - N/A   Clear
5:35 PM 71.6 °F 49.6 °F 46% 30.25 in 10.0 mi SSE 4.6 mph - N/A   Clear
5:55 PM 70.9 °F 50.0 °F 48% 30.24 in 10.0 mi SSE 3.5 mph - N/A   Clear
6:15 PM 70.5 °F 51.1 °F 50% 30.24 in 10.0 mi SE 3.5 mph - N/A   Clear
6:35 PM 68.9 °F 52.0 °F 55% 30.24 in 10.0 mi Calm Calm - N/A   Clear
6:55 PM 66.2 °F 53.2 °F 63% 30.24 in 10.0 mi ESE 3.5 mph - N/A   Clear
7:15 PM 63.9 °F 53.1 °F 68% 30.24 in 10.0 mi ESE 3.5 mph - N/A   Clear
7:35 PM 61.3 °F 52.9 °F 74% 30.24 in 10.0 mi ESE 3.5 mph - N/A   Clear
7:55 PM 60.6 °F 52.7 °F 75% 30.24 in 10.0 mi SE 4.6 mph - N/A   Clear
8:15 PM 60.1 °F 52.3 °F 76% 30.25 in 10.0 mi SE 4.6 mph - N/A   Clear
8:35 PM 59.5 °F 52.0 °F 76% 30.25 in 10.0 mi SE 3.5 mph - N/A   Clear
8:55 PM 60.4 °F 52.2 °F 74% 30.25 in 10.0 mi SSE 5.8 mph - N/A   Clear
9:15 PM 59.9 °F 52.0 °F 75% 30.25 in 10.0 mi SSE 6.9 mph - N/A   Clear
9:35 PM 59.4 °F 51.8 °F 76% 30.25 in 10.0 mi SSE 6.9 mph - N/A   Clear
9:55 PM 58.5 °F 51.4 °F 77% 30.25 in 10.0 mi SSE 4.6 mph - N/A   Clear
10:15 PM 58.1 °F 51.1 °F 77% 30.25 in 10.0 mi South 4.6 mph - N/A   Clear
10:35 PM 57.6 °F 50.9 °F 78% 30.25 in 10.0 mi South 4.6 mph - N/A   Clear
10:55 PM 56.8 °F 50.5 °F 79% 30.25 in 10.0 mi South 4.6 mph - N/A   Clear
11:15 PM 56.3 °F 50.0 °F 79% 30.24 in 10.0 mi Calm Calm - N/A   Clear
11:35 PM 56.1 °F 49.5 °F 78% 30.24 in 10.0 mi Calm Calm - N/A   Clear
11:55 PM 55.6 °F 49.3 °F 79% 30.24 in 10.0 mi Calm Calm - N/A   Clear